{"data":{"norad_id":53820,"epoch":"2026-09-20T22:21:52.964064Z","epoch_age_seconds":46998,"freshness":"FRESH","line1":"1 53820U 22114C   26263.93186301 -.00000425  00000+0 -12389-5 0  9998","line2":"2 53820  53.1590 138.0493 0002767 121.7275 238.3998 15.35406143222435","mean_motion":15.35406143,"eccentricity":0.0002767,"inclination_deg":53.159,"raan_deg":138.0493,"arg_perigee_deg":121.7275,"mean_anomaly_deg":238.3998,"bstar":-1.2389e-6,"rev_number":22243,"period_min":93.786260173898,"perigee_km":457.8223708427,"apogee_km":461.60643780985,"semimajor_km":6837.8514043263,"source":"CELESTRAK","updated_at":"2026-09-21T09:00:32.997767Z"}}